Theta_e
304 304 304 304 304 304 304 304 304 303 303 301 300 303 297 293 289 301 305 306 302 294 289 292 290 289 289 292 291 292 290 289 291 288 291 288 292 290 289 290 290 293 293 291 291 292 289 290 290 292 293 294 297 297 298 298 297 298 296 298 300 302 294 291 292 295 297 299 300 301 301 300 298 298 299 298 296 297 295 295 297 293 294 292 291 288 296
304 304 304 304 304 304 304 304 304 304 303 301 301 298 294 295 294 297 305 307 302 293 284 285 286 289 292 292 290 292 290 290 288 288 289 289 289 288 289 292 296 294 297 293 290 293 286 292 292 291 294 292 299 298 297 298 295 295 295 294 300 291 295 293 288 288 290 292 296 296 299 299 296 295 297 299 299 299 299 299 300 291 294 294 291 286 294
303 304 303 304 304 304 304 304 304 304 303 303 300 293 296 296 298 298 300 303 300 289 291 287 287 287 287 288 287 289 289 292 291 290 289 292 291 290 289 292 294 294 295 293 294 294 292 289 294 294 294 294 298 297 297 298 296 297 299 302 301 294 294 292 285 282 280 280 282 284 288 293 297 298 297 298 298 298 296 290 294 289 294 296 292 291 303
303 303 303 304 303 304 304 304 303 303 303 303 301 297 294 291 285 291 296 297 296 295 296 292 289 287 288 286 289 290 287 291 294 293 292 293 293 293 293 295 296 293 293 292 289 292 295 293 292 293 293 293 296 297 298 297 297 300 306 303 300 294 298 296 293 290 288 290 293 297 297 295 292 295 296 296 298 299 299 297 292 290 294 293 296 299 302
303 303 303 303 303 303 303 303 303 303 302 303 300 298 294 293 287 287 286 293 294 292 294 292 291 287 292 285 289 287 288 290 291 294 288 293 293 293 294 294 293 291 292 291 291 294 293 295 294 294 294 294 296 297 297 297 299 302 299 302 299 295 292 295 297 295 294 296 295 297 296 294 295 295 295 297 297 298 298 292 291 298 295 289 297 303 301
302 303 303 303 303 303 303 303 303 303 303 303 303 293 297 287 290 291 294 286 286 288 289 292 291 292 292 288 291 288 288 289 287 292 294 294 296 291 294 292 294 293 292 292 288 291 292 293 290 295 294 293 295 294 296 296 301 299 299 301 297 295 290 296 297 295 297 297 296 297 296 296 296 296 297 296 297 297 295 296 298 299 292 291 298 301 300
302 302 303 303 303 303 303 303 303 303 302 303 301 292 295 294 293 292 296 288 291 291 292 293 292 291 292 290 291 289 290 288 291 291 291 293 293 293 286 291 293 294 295 293 290 292 288 287 294 294 294 293 293 292 294 297 299 298 298 298 299 296 292 296 296 295 296 296 296 297 296 296 296 296 297 297 297 297 297 298 299 299 298 299 299 301 301
301 301 301 302 302 302 302 303 303 303 302 303 299 295 289 288 287 287 293 291 290 292 292 292 291 289 292 287 290 290 290 288 291 293 292 288 291 291 291 293 294 294 295 294 292 294 297 296 290 297 295 294 295 293 294 293 297 297 296 297 299 295 290 295 297 293 294 296 297 297 297 295 294 296 296 297 297 297 298 298 299 300 300 300 299 299 299
300 301 301 301 302 302 302 303 303 302 302 297 295 294 295 294 295 293 287 285 289 292 293 292 291 289 291 289 290 291 290 290 292 292 295 293 292 295 294 295 294 296 295 294 294 299 299 297 299 300 298 292 297 293 295 297 294 295 296 297 298 296 292 297 296 289 291 295 295 295 297 297 295 295 296 296 296 295 297 295 299 298 296 298 299 297 298
300 300 301 301 301 301 302 302 302 302 302 298 295 291 297 296 298 297 291 284 290 288 293 293 291 287 291 292 292 291 291 293 294 289 296 298 298 298 298 299 295 297 297 295 297 301 303 303 303 304 303 303 300 299 299 298 296 295 296 298 295 295 294 290 291 288 288 295 295 296 296 295 291 291 296 297 298 298 299 299 300 300 301 296 292 296 303
299 300 300 300 301 301 302 302 302 302 302 295 293 292 294 292 290 292 292 285 288 291 291 291 290 292 294 294 293 294 294 294 294 289 289 297 299 301 300 298 296 293 296 300 305 306 306 306 307 307 307 305 303 302 300 300 299 298 297 296 296 297 296 291 295 287 288 294 295 296 291 284 286 298 302 300 298 298 297 297 300 302 302 300 302 303 306
298 299 300 300 301 301 301 301 302 301 301 301 299 295 298 298 295 293 289 284 285 291 290 288 290 293 292 294 293 292 292 294 294 297 293 295 297 299 299 299 299 290 301 308 307 307 306 307 306 307 305 304 303 303 301 299 299 300 300 297 296 295 295 292 295 289 288 292 294 287 282 285 301 304 305 304 302 301 299 300 301 302 303 303 302 303 304
298 299 299 300 301 301 301 301 301 301 301 302 300 294 299 300 294 291 289 286 284 287 286 289 294 294 294 294 293 294 295 296 297 297 297 296 297 298 300 299 298 301 305 305 305 304 301 300 302 302 302 301 301 302 300 299 299 301 300 299 298 292 292 292 291 292 291 289 288 280 283 298 303 306 307 309 305 303 302 299 302 302 303 303 302 303 305
298 298 299 300 300 300 301 301 301 301 302 302 298 298 300 300 293 290 289 286 285 289 290 289 292 292 293 293 293 294 296 296 297 299 296 299 298 298 301 302 303 305 306 306 303 301 296 294 292 293 294 299 298 297 300 299 299 298 300 299 299 298 296 293 289 293 286 288 288 287 296 296 299 299 302 301 298 299 298 291 297 303 304 304 302 303 305
298 298 299 299 300 300 300 301 301 301 301 301 301 300 299 301 298 293 292 289 284 287 290 286 289 291 293 293 295 293 294 295 295 295 300 302 299 301 303 304 307 305 307 303 301 301 295 290 288 287 287 288 284 287 296 293 298 301 301 301 300 300 294 295 291 288 291 288 287 287 287 283 291 299 304 306 306 306 305 299 295 304 305 306 305 304 305
298 298 299 299 299 300 300 300 301 301 301 301 301 300 300 302 302 298 293 289 286 282 290 293 293 293 291 293 295 293 292 292 294 296 297 299 300 302 304 305 306 307 304 303 301 297 292 288 286 288 286 287 292 291 288 295 293 298 300 300 299 299 299 297 292 289 289 288 286 285 283 287 298 300 303 307 308 308 308 299 292 301 304 305 306 305 306
298 298 298 299 299 299 300 300 300 301 301 301 299 299 298 303 301 297 293 290 288 285 293 294 294 295 293 293 296 295 296 292 295 291 291 295 300 301 304 305 308 306 305 302 301 296 292 289 290 290 291 295 288 287 295 292 290 292 297 299 297 296 294 292 290 288 289 288 287 285 289 288 300 306 307 309 310 311 304 288 289 302 304 305 305 304 304
298 298 298 298 299 299 300 300 300 300 301 301 300 299 299 304 303 301 295 290 286 287 292 296 294 292 291 294 293 297 298 297 297 298 295 299 299 300 302 303 301 305 307 298 297 292 290 289 287 287 286 295 296 295 287 293 288 289 291 292 291 291 291 292 288 289 289 287 288 290 290 300 306 307 310 309 313 307 291 286 297 310 306 306 307 305 305
298 298 298 298 298 299 299 300 300 300 301 301 301 300 301 304 304 301 295 289 288 285 294 298 298 295 297 300 297 298 299 298 297 293 293 294 298 301 302 302 304 295 301 296 298 292 290 290 296 292 288 291 296 288 295 290 289 296 295 290 291 290 291 291 292 289 289 290 287 288 291 303 308 309 310 312 305 291 290 304 310 314 313 309 308 307 307
297 297 298 298 298 299 299 300 300 300 301 301 301 296 299 303 305 302 295 288 289 287 292 294 296 294 298 296 294 295 297 298 298 296 294 291 301 302 298 294 301 304 298 300 291 296 291 289 292 297 291 293 295 297 292 292 298 296 295 295 291 291 288 288 288 290 292 290 288 286 284 296 310 309 307 310 295 295 307 312 312 311 314 314 312 309 308
297 297 297 298 298 299 299 300 300 300 301 301 301 298 296 303 305 305 304 298 290 287 292 302 301 298 298 298 299 299 297 295 298 296 298 299 303 298 289 289 296 297 293 294 290 292 293 291 295 293 298 295 296 295 289 289 293 299 298 296 295 298 289 290 291 295 288 288 285 287 295 304 311 307 296 306 307 313 314 314 311 313 314 315 314 312 313
297 297 297 298 298 299 299 299 300 301 301 301 300 299 296 300 303 304 304 303 294 290 294 300 301 301 302 303 303 303 302 301 302 304 300 298 303 300 299 300 300 300 302 302 297 294 299 298 298 294 293 294 299 292 295 289 287 295 301 299 288 299 294 296 290 299 292 290 293 304 307 309 311 311 310 313 314 315 315 315 313 313 313 316 314 315 318
297 297 297 297 298 299 299 299 300 300 301 301 300 299 296 298 300 304 303 296 299 300 301 299 300 301 302 302 304 304 304 306 306 306 306 300 298 303 302 302 301 305 306 305 300 299 296 298 291 299 295 297 293 293 294 293 290 296 293 301 297 304 303 308 299 297 301 306 306 308 308 308 310 313 314 313 314 314 314 314 314 313 316 316 315 317 316
297 297 297 297 298 298 299 299 300 300 301 301 300 299 298 300 301 301 301 300 297 293 298 302 299 296 302 302 306 306 304 303 304 306 309 307 296 297 303 305 306 305 305 307 308 303 301 298 300 301 292 299 299 293 290 290 290 297 296 295 298 302 304 302 296 300 295 291 304 304 306 310 312 312 313 315 313 314 314 313 314 314 315 316 317 318 317
297 297 297 298 298 298 299 299 300 300 301 301 301 301 302 301 304 304 299 292 294 293 289 295 299 306 306 307 308 307 306 307 307 307 307 307 304 300 300 305 308 303 301 305 309 306 300 295 298 296 291 301 300 291 298 293 292 299 293 295 297 297 306 299 298 299 295 294 302 306 311 311 312 311 311 310 312 313 313 316 317 316 317 317 317 318 317
297 297 297 297 298 298 299 299 300 300 301 301 301 299 299 300 305 305 302 301 300 297 291 292 300 308 309 306 305 307 311 308 306 305 306 306 307 308 308 308 307 309 307 307 307 300 298 296 297 294 294 293 306 295 295 299 300 303 297 299 303 305 304 294 299 297 301 304 306 308 310 309 309 310 312 313 313 314 313 315 315 315 315 316 317 317 316
297 297 297 297 298 298 299 299 300 300 300 300 300 302 302 304 306 304 301 301 297 293 296 294 300 304 306 305 307 309 310 308 307 306 306 307 307 308 307 306 304 304 303 303 305 300 299 298 297 296 299 297 303 303 304 301 300 295 296 303 306 304 299 301 299 294 295 296 300 305 296 295 307 310 311 313 314 314 314 314 315 315 314 314 313 314 315
297 297 297 298 298 299 299 299 300 300 300 300 301 303 306 305 306 307 308 305 300 293 293 294 296 302 307 306 308 308 309 310 308 306 305 306 307 307 306 305 304 302 301 300 296 297 297 295 297 297 297 303 301 298 304 305 303 299 298 302 306 301 304 303 296 296 295 304 307 309 309 310 311 312 312 313 313 314 313 314 314 314 314 314 313 312 312
297 297 297 298 298 298 299 299 299 300 300 300 303 303 305 308 309 309 308 309 305 299 296 297 301 301 296 301 308 307 307 309 309 308 307 306 306 306 304 304 303 302 301 300 298 297 297 298 298 299 300 306 302 297 301 294 294 292 300 305 306 307 310 308 306 306 305 308 307 310 310 309 309 312 312 312 314 314 313 314 314 314 313 313 313 313 311
297 298 298 298 298 299 299 299 299 300 300 301 301 302 300 303 308 308 308 307 306 302 294 292 292 295 308 306 304 305 305 308 309 309 308 308 307 305 304 303 301 301 300 296 296 294 297 298 297 305 306 309 301 298 294 297 295 298 303 307 307 308 308 309 309 308 306 308 309 310 310 310 311 312 312 313 313 313 313 312 313 313 312 314 313 312 312
297 297 298 298 298 299 299 299 300 300 300 301 300 295 297 294 302 308 305 308 308 302 296 295 293 299 300 307 306 303 303 304 307 308 309 310 309 307 306 304 303 301 296 297 297 297 296 295 295 298 306 306 300 297 297 297 293 299 304 306 308 307 308 308 309 310 309 309 310 310 310 310 311 311 311 312 312 313 313 312 312 310 312 312 312 312 311
297 298 298 298 298 299 299 300 299 300 301 299 297 299 302 303 306 307 306 305 306 301 295 292 294 295 294 300 305 305 303 305 306 307 307 308 305 307 305 304 302 304 300 297 296 295 294 295 293 299 301 303 299 298 300 296 293 298 304 305 307 308 308 309 308 308 309 310 310 309 308 308 310 310 308 312 312 313 313 312 312 313 309 312 312 312 311
298 298 298 298 298 298 299 300 300 300 301 302 303 302 302 302 303 305 305 306 304 300 303 296 292 294 293 298 304 302 305 306 305 306 303 307 304 306 301 305 304 302 305 297 294 293 297 294 294 294 302 305 296 296 297 293 297 303 305 306 307 307 308 308 308 308 308 308 308 306 306 306 308 310 311 312 312 312 313 311 311 311 311 310 310 310 310
298 298 298 298 298 299 299 300 300 301 301 299 299 303 307 305 306 304 309 307 303 304 301 295 292 292 293 303 298 300 304 300 300 301 296 304 307 304 299 302 303 296 299 296 296 295 297 294 293 295 300 294 297 295 292 296 302 303 304 305 306 306 308 307 307 307 307 307 308 308 308 309 309 311 311 311 311 311 311 311 310 310 309 309 308 309 309
297 297 298 298 299 300 300 300 303 302 303 304 306 309 306 300 302 305 305 305 299 296 296 295 296 293 292 293 292 297 304 302 297 299 296 300 307 302 302 295 295 294 295 303 295 295 293 295 302 295 294 302 296 292 295 300 302 303 304 305 306 307 306 305 305 306 307 308 308 308 309 309 308 308 308 310 309 309 309 309 309 309 307 307 307 308 308
297 298 298 299 300 301 304 304 305 306 305 306 306 304 302 303 305 308 308 308 304 300 296 295 295 293 294 289 290 295 304 300 301 302 299 297 301 303 302 298 293 296 304 297 293 298 293 301 297 293 297 294 292 297 299 303 302 303 304 304 305 306 306 306 305 306 307 308 308 308 307 308 308 307 307 307 308 308 308 308 308 308 307 307 306 307 307
297 298 299 300 302 305 304 303 307 308 304 303 302 302 301 305 310 308 305 304 307 308 300 296 295 295 296 294 297 296 300 293 299 298 298 295 293 297 297 295 293 295 295 294 293 293 297 304 297 293 294 293 294 302 303 303 303 303 302 304 305 306 305 305 306 306 306 306 306 306 305 306 306 305 305 305 306 307 307 306 306 306 305 305 305 305 305
298 299 300 302 304 297 297 299 305 304 302 302 301 304 305 304 300 299 299 298 304 303 299 303 295 299 302 298 292 301 298 295 301 294 294 296 294 293 295 294 294 294 289 291 294 301 298 294 293 293 293 302 303 303 303 304 305 305 305 305 305 306 305 306 306 305 303 302 302 303 302 303 303 303 303 303 304 304 305 307 307 307 307 305 305 305 303
298 301 302 303 301 296 297 303 305 303 304 305 306 300 298 300 298 294 295 299 297 295 301 301 296 300 299 297 297 304 298 293 294 296 291 297 292 290 294 290 292 294 290 291 293 302 291 291 292 294 293 299 300 301 303 304 305 305 305 305 306 306 306 306 305 304 304 303 304 304 303 302 302 302 303 303 304 305 305 306 306 306 305 305 305 304 303
300 295 293 295 296 298 302 306 304 303 305 300 302 299 293 298 293 290 296 292 293 295 299 294 300 299 300 297 294 296 304 297 291 291 292 294 298 291 293 293 293 291 287 287 290 299 291 287 291 292 292 298 300 302 303 303 303 304 305 305 306 306 306 305 305 305 305 305 306 305 305 305 305 304 303 302 303 303 303 304 305 305 305 305 303 303 301
296 295 294 292 296 299 301 303 306 305 299 296 295 294 292 290 295 295 293 290 291 293 299 299 300 298 301 301 300 294 305 305 303 302 296 291 297 298 292 288 294 289 287 287 292 294 292 289 289 289 292 300 301 302 303 303 303 303 304 305 305 305 305 305 305 305 305 305 305 305 305 305 304 304 303 303 303 303 303 304 304 304 304 302 302 303 303
294 293 295 298 299 300 301 302 300 296 296 297 291 288 291 292 295 293 293 288 290 294 299 299 294 297 297 299 298 299 298 305 301 295 293 289 292 291 289 292 292 288 285 291 296 294 291 286 287 289 296 302 303 303 303 302 302 302 303 304 304 304 304 304 304 304 305 304 305 304 304 304 305 304 304 304 303 303 303 303 303 303 302 303 303 303 302
298 299 299 297 297 296 298 293 296 295 288 288 287 286 290 288 289 289 290 294 299 296 297 303 302 303 304 304 302 303 299 304 296 293 292 289 294 293 290 289 288 285 288 296 292 289 287 286 287 293 301 302 303 302 303 303 303 303 303 304 304 305 304 304 304 304 304 304 304 304 304 304 304 305 305 305 304 303 303 303 302 302 302 301 301 301 301
300 300 296 294 291 293 295 285 295 291 288 290 287 282 287 286 289 291 289 291 296 295 300 297 297 297 293 301 298 295 298 300 296 295 293 294 292 288 288 286 287 292 297 292 289 286 287 289 291 296 301 303 304 303 303 303 304 303 303 304 305 304 304 304 304 304 304 305 304 304 304 304 304 304 305 305 304 303 303 302 303 302 302 302 300 300 300
293 292 292 291 289 292 290 283 294 289 284 287 289 289 289 286 289 291 291 294 298 296 299 300 299 298 296 301 299 298 296 292 295 292 287 291 288 289 287 286 290 292 289 286 288 288 288 287 296 300 300 301 303 303 304 304 304 303 303 303 303 304 304 303 303 304 303 303 303 303 303 303 304 304 304 305 305 305 304 302 302 302 302 301 300 300 300
290 289 290 286 282 289 289 286 288 285 290 292 291 294 293 294 293 294 298 301 298 299 298 299 299 298 298 298 294 293 296 295 291 290 291 292 287 285 290 294 293 287 286 287 285 285 286 292 295 298 302 303 303 304 304 304 304 304 303 301 302 303 303 304 304 303 303 303 303 303 303 304 304 304 304 304 305 304 304 303 303 302 302 300 299 299 300
291 292 292 291 285 289 292 286 287 291 293 295 296 297 296 296 298 299 299 300 299 300 299 301 300 299 296 296 295 295 295 295 290 291 293 287 285 288 292 288 284 286 284 284 285 286 289 293 297 300 304 304 304 304 304 304 304 304 303 303 303 303 303 303 303 303 303 303 303 303 303 304 304 304 305 304 304 304 304 304 304 303 301 300 299 300 300
286 292 292 284 284 289 287 290 296 296 298 298 298 299 300 300 298 298 300 300 300 301 299 299 296 297 296 300 298 293 294 294 290 290 291 288 290 287 285 285 285 286 288 287 287 292 293 296 299 301 305 306 305 304 303 304 304 304 304 303 303 303 303 303 303 303 303 303 303 303 303 303 304 303 304 304 304 303 304 304 304 304 303 301 300 300 299
291 289 287 288 291 291 291 295 294 293 295 297 299 299 298 297 296 298 300 301 300 299 301 298 295 295 292 295 293 292 289 293 288 287 291 288 284 281 283 282 284 283 288 291 293 294 296 299 301 304 305 305 305 305 304 304 304 304 304 303 303 303 303 303 303 303 303 303 303 303 303 304 304 303 302 302 302 303 304 303 303 303 302 301 300 299 299
288 288 290 288 289 292 295 295 294 292 295 296 296 296 297 297 297 299 301 299 300 300 301 298 298 293 293 293 289 290 290 293 290 290 288 285 285 286 286 283 285 287 289 295 295 296 299 300 303 303 304 305 305 305 304 304 302 304 304 304 304 304 303 304 303 303 303 303 303 304 304 304 304 303 302 302 302 303 303 303 302 301 302 302 301 300 298
291 289 290 295 290 290 293 288 289 289 291 293 294 295 296 296 297 298 300 300 300 298 294 292 293 292 292 290 289 286 288 293 290 288 288 286 288 287 285 284 287 292 295 297 298 299 300 302 302 303 304 305 305 305 305 304 303 304 305 305 304 304 304 304 304 304 304 304 304 298 303 304 304 304 304 304 303 303 302 301 301 302 302 301 301 301 300
288 286 287 290 293 294 295 295 295 294 295 296 295 296 298 296 298 299 302 300 298 294 291 294 292 290 288 287 289 292 293 291 288 288 286 288 290 287 287 291 295 296 298 298 299 300 300 302 303 302 305 304 304 306 305 304 304 304 304 304 304 304 304 304 304 304 304 303 304 304 304 304 304 304 304 304 303 302 301 300 300 301 301 302 301 300 299
Wind_Speed
21 20 19 19 20 21 21 23 23 20 21 13 12 10 6 3 2 3 1 1 5 5 7 6 3 3 6 2 3 4 5 6 5 7 5 7 2 4 3 6 7 6 3 15 10 11 10 13 9 10 12 10 11 16 16 16 18 12 10 12 13 6 8 13 11 11 10 10 13 16 15 17 16 15 15 14 15 15 12 10 9 9 10 10 5 7 4
22 20 19 19 20 21 21 22 21 20 18 12 11 9 6 5 3 1 3 2 3 6 6 5 6 6 7 7 7 4 6 7 7 5 6 4 4 5 5 6 5 5 7 8 10 12 8 11 9 10 12 6 5 21 16 21 16 13 11 9 16 7 10 12 13 11 12 12 12 14 15 14 13 13 17 18 15 15 13 10 8 9 12 14 9 9 3
22 21 20 19 20 20 21 21 20 20 19 16 9 7 8 7 4 3 3 4 4 6 5 4 5 7 9 11 10 4 3 4 5 6 8 5 5 5 4 6 8 4 4 6 9 8 8 9 10 10 10 9 10 18 17 19 15 13 12 11 12 7 11 12 12 15 16 16 17 18 18 18 12 15 18 20 17 16 14 11 10 9 10 15 9 6 6
22 21 21 20 21 21 21 20 19 21 20 18 9 6 6 3 5 2 3 2 2 5 4 4 5 7 9 8 7 7 5 1 5 5 6 5 6 7 9 8 6 4 5 6 3 7 7 7 8 11 9 9 9 14 17 16 17 16 12 13 14 7 11 13 10 11 11 12 12 11 13 12 14 17 19 20 19 17 14 11 11 10 7 9 12 8 9
21 21 21 20 19 20 20 20 20 21 21 19 9 6 3 5 3 5 5 6 4 4 4 5 5 6 8 7 7 9 9 7 1 5 2 2 6 5 5 4 3 7 8 8 8 9 10 10 10 9 9 7 9 16 17 16 14 12 8 8 12 9 10 16 15 15 15 10 7 9 13 15 16 15 17 19 21 19 16 11 12 12 9 11 9 10 10
21 21 21 21 20 20 21 21 21 22 22 22 8 5 3 3 2 2 4 5 5 6 1 5 7 9 7 7 7 8 9 9 7 1 1 6 2 3 1 4 6 9 8 8 7 11 8 10 8 10 7 11 13 13 16 15 13 9 11 14 10 9 7 15 15 15 13 13 16 14 15 16 17 17 16 18 19 21 18 15 14 12 8 8 12 13 12
22 21 21 21 21 21 21 21 21 22 25 21 5 5 3 3 5 3 3 5 6 8 11 12 10 11 9 6 7 8 9 9 7 6 6 6 3 4 1 3 6 8 4 6 7 8 9 4 3 6 9 11 13 12 16 14 15 13 10 13 8 7 9 15 14 12 14 13 12 11 12 14 17 18 17 17 18 19 19 14 13 15 13 11 8 10 15
22 22 22 22 22 21 21 22 21 21 24 16 4 5 4 4 4 4 7 7 11 11 8 8 8 7 6 4 5 8 9 9 10 8 5 5 4 4 4 3 4 6 6 3 6 4 1 4 6 6 7 10 9 12 11 12 15 15 12 10 9 9 8 12 15 12 13 14 16 15 14 13 15 17 19 18 18 18 18 16 15 14 15 12 12 6 8
20 21 21 22 22 22 22 22 21 18 19 8 7 4 4 4 5 6 7 9 6 7 8 7 6 5 4 4 5 5 4 8 8 7 4 5 8 8 7 8 5 7 6 7 5 4 5 6 4 1 3 3 12 9 11 13 14 16 12 11 10 10 4 13 12 10 10 11 5 5 8 13 16 16 18 20 19 18 16 14 15 14 14 14 13 10 8
21 21 21 21 21 22 22 22 21 17 15 6 5 5 6 6 5 6 6 5 7 8 8 7 6 3 4 6 6 6 7 8 8 6 2 3 4 6 8 6 7 4 3 5 5 5 4 5 4 3 6 8 3 7 10 12 13 12 11 10 10 10 7 9 10 12 8 11 11 12 10 11 13 14 17 19 17 15 13 14 15 15 13 14 10 10 7
21 21 21 21 21 21 21 21 21 19 11 9 7 5 6 5 6 5 5 7 6 6 7 6 7 4 7 6 9 8 9 8 6 6 3 4 3 5 6 7 4 2 4 3 3 4 7 6 4 2 6 8 6 3 8 14 12 12 10 10 10 10 8 9 12 9 7 12 12 10 10 12 10 5 10 13 15 17 17 15 15 13 13 11 10 9 5
20 20 20 20 20 21 20 20 19 19 13 8 7 7 5 5 6 4 5 6 7 8 7 6 8 8 10 10 10 10 10 9 8 6 9 6 7 6 7 6 5 1 2 5 6 6 6 4 4 2 2 7 6 6 8 9 15 13 13 11 11 12 8 7 9 7 8 10 10 9 13 10 4 2 1 5 10 13 16 15 17 16 16 14 13 15 11
20 21 21 20 20 20 20 20 20 20 17 10 8 9 7 6 3 4 5 5 6 7 7 9 10 11 9 9 9 8 9 9 8 8 8 8 8 7 4 5 4 4 5 7 7 7 5 5 6 6 5 7 7 8 10 12 13 15 13 14 13 9 7 6 7 7 5 8 9 10 9 4 3 4 3 2 3 6 8 13 16 16 17 17 15 15 15
20 20 20 21 20 20 20 19 20 19 19 14 9 7 7 6 3 3 3 5 7 7 8 10 8 5 7 9 9 9 8 9 7 6 8 5 7 8 5 5 5 5 5 6 6 5 2 3 4 6 7 4 5 5 10 11 12 11 12 17 12 13 10 7 8 8 7 7 9 8 4 2 8 6 7 6 10 11 10 7 10 14 14 16 16 14 13
19 20 20 20 20 19 20 20 20 19 18 17 9 7 5 5 2 2 3 3 7 10 8 5 6 10 10 9 8 7 6 5 5 4 5 5 7 6 7 5 4 3 4 5 3 5 3 3 4 6 6 3 6 6 8 8 8 11 10 9 14 14 12 8 8 6 7 7 8 9 6 6 6 10 8 8 6 7 10 10 11 12 14 13 15 17 15
20 20 19 20 20 20 20 20 19 19 18 19 10 8 7 5 3 3 3 3 5 6 2 6 8 8 8 8 8 8 5 4 5 6 5 5 6 6 6 4 3 3 5 4 4 3 2 4 4 5 5 8 5 5 5 9 8 11 13 11 13 13 13 9 7 5 6 6 8 8 8 4 4 5 8 9 7 7 7 8 12 12 18 17 15 15 15
20 20 20 20 19 20 20 19 19 18 18 18 11 9 7 4 3 3 4 3 3 7 12 12 7 7 7 7 5 4 4 3 6 4 2 1 1 3 2 3 1 3 3 5 5 4 4 5 4 6 5 6 8 5 9 9 8 11 14 14 13 12 12 9 9 7 8 6 6 7 4 1 5 6 6 9 7 7 9 9 8 11 16 18 20 20 18
19 20 20 20 20 20 20 19 19 18 17 17 12 10 10 7 4 3 3 4 5 6 6 5 5 6 5 5 7 5 4 5 4 4 6 5 4 4 2 3 4 4 3 4 3 4 4 4 7 5 5 5 4 5 5 9 9 10 14 14 12 10 8 10 11 9 8 9 7 4 3 5 7 7 8 8 8 8 8 8 1 9 9 17 17 19 19
19 20 20 20 20 20 20 19 19 18 17 18 13 10 7 8 4 4 3 3 3 6 6 6 9 12 11 9 9 8 7 7 6 5 3 2 1 7 2 1 3 2 5 3 4 3 5 5 6 4 6 8 7 5 5 6 8 10 13 13 13 12 8 8 9 11 10 8 9 7 1 3 5 7 9 9 8 6 6 2 5 4 4 9 15 16 17
19 20 20 20 20 20 19 19 19 18 17 18 13 9 10 10 9 6 5 3 2 8 12 12 7 10 6 6 7 6 6 7 7 6 5 3 3 4 3 3 6 5 4 4 4 4 4 6 6 5 5 4 6 4 6 6 7 8 9 11 9 11 9 11 10 6 8 5 8 8 9 3 5 10 8 7 6 1 2 0 3 3 1 5 8 13 15
19 20 20 20 20 20 20 18 18 18 17 17 13 10 10 8 7 5 6 7 4 9 7 3 4 9 9 11 12 12 9 9 6 6 5 6 5 2 2 0 1 4 2 3 4 4 2 4 7 4 3 1 4 7 4 4 9 7 9 9 8 12 9 7 7 9 8 8 8 5 2 8 11 8 2 5 0 5 4 3 3 2 1 5 5 8 10
19 20 20 20 20 20 20 19 19 18 18 17 16 10 10 9 8 8 8 6 7 9 7 9 11 14 15 15 14 13 14 15 14 11 9 7 6 4 6 3 7 4 4 3 3 3 4 2 5 4 6 4 3 6 7 6 6 8 12 9 7 6 10 4 4 10 8 3 2 6 3 7 8 6 4 5 3 4 5 5 4 1 3 0 4 5 9
19 19 20 20 20 20 20 20 19 18 18 18 14 9 11 12 10 9 8 8 7 10 11 14 13 14 14 16 17 17 16 14 13 12 10 8 6 6 4 4 2 1 4 3 5 2 1 2 2 4 6 3 4 5 10 8 5 9 8 11 4 8 9 1 3 5 8 6 6 4 4 6 9 5 4 4 3 2 3 3 2 4 2 0 2 6 9
20 20 21 21 21 21 20 20 20 19 18 17 14 10 10 10 10 9 7 7 7 9 10 7 3 3 4 7 8 11 11 12 14 13 9 8 6 4 3 2 3 4 3 3 3 5 5 4 3 2 4 4 2 3 5 7 5 4 7 8 9 7 9 8 8 4 5 6 7 5 2 3 5 5 6 3 1 2 2 3 1 2 1 1 1 6 8
21 20 21 21 22 21 21 20 20 20 17 18 16 12 11 10 7 5 7 4 4 4 5 5 7 8 1 5 5 7 11 10 9 10 10 9 10 8 2 5 5 4 6 5 3 4 3 4 1 0 5 2 0 6 9 4 8 8 6 7 7 9 8 8 9 9 7 4 3 4 4 2 3 3 4 4 4 2 3 1 1 2 2 2 3 5 9
21 20 21 22 22 21 21 21 21 20 18 18 18 11 9 9 8 7 6 7 8 5 5 5 4 2 2 1 5 4 9 11 9 11 11 12 11 11 8 7 6 4 5 5 5 3 3 3 3 3 3 1 5 4 3 2 5 11 8 4 3 4 7 6 6 9 7 4 2 2 4 6 6 5 3 1 3 4 3 2 4 5 5 6 6 5 7
21 21 21 22 22 21 21 22 21 20 19 21 15 11 10 9 7 7 6 5 9 3 5 6 8 9 7 10 3 4 10 10 10 9 9 10 10 9 8 8 7 5 5 6 4 3 3 4 4 6 5 2 2 7 6 4 2 2 5 7 7 5 6 4 6 5 5 3 2 4 5 3 5 5 5 5 3 2 4 3 5 6 6 6 7 7 8
20 21 21 21 22 22 21 22 21 21 20 23 16 11 10 9 6 6 5 6 5 6 9 10 9 10 15 12 5 4 7 11 9 9 7 8 8 7 7 7 6 6 6 5 4 4 4 5 6 3 3 5 6 5 7 3 1 2 7 3 4 1 3 4 4 3 1 5 3 4 4 4 6 4 5 4 3 2 4 4 4 6 6 6 7 9 10
22 22 22 22 22 22 21 21 21 20 22 20 12 11 10 5 4 3 4 4 5 6 8 11 13 11 4 7 5 2 3 4 7 7 6 7 7 6 5 6 5 3 5 4 3 3 3 4 3 4 2 4 4 5 3 5 3 4 1 2 3 5 2 3 1 4 6 2 5 6 4 4 5 5 4 4 2 4 4 5 4 5 5 5 7 8 10
21 21 23 23 23 22 22 21 21 20 20 12 10 7 4 5 3 3 1 2 4 5 5 6 4 1 7 5 2 2 5 5 6 6 6 6 7 6 5 4 3 3 3 2 1 3 2 3 1 4 1 4 4 1 2 4 6 5 7 5 5 2 3 3 6 5 4 2 5 5 4 5 4 4 3 3 2 3 4 4 6 6 5 7 9 9 9
23 23 23 23 23 23 23 22 21 20 18 9 6 4 4 1 3 2 2 3 3 5 4 4 8 7 5 2 1 0 4 6 6 6 6 4 3 4 4 4 3 5 2 3 4 3 2 2 1 2 3 3 2 2 5 4 4 3 3 4 2 5 3 5 4 4 3 4 4 4 5 5 4 6 6 3 4 2 4 5 2 3 4 7 8 9 10
24 24 24 23 22 22 23 23 22 18 10 8 8 5 4 4 4 3 1 4 6 5 4 6 5 3 2 2 4 4 5 7 7 5 4 4 4 4 5 5 3 5 3 2 3 1 1 1 2 4 5 4 2 5 2 4 5 6 5 2 4 2 4 2 4 4 5 4 2 3 5 6 5 6 4 4 4 3 4 8 5 6 3 6 7 9 10
25 24 24 23 24 24 24 24 21 14 10 12 18 21 21 20 10 8 7 7 5 5 4 3 5 3 3 4 2 4 5 5 4 6 6 7 5 7 4 5 4 3 4 2 2 2 2 0 0 3 1 4 2 2 0 2 1 4 2 4 5 3 3 3 3 5 4 5 6 6 4 5 4 5 4 4 5 5 3 6 7 7 7 8 10 10 10
26 24 26 25 25 26 25 22 20 16 12 8 8 8 6 8 7 7 5 5 5 5 3 3 3 3 4 4 4 5 6 2 3 2 2 5 6 6 4 5 5 2 4 3 1 1 0 0 4 2 4 2 4 3 2 4 2 4 3 3 4 3 4 3 4 4 5 5 4 4 7 4 3 2 2 3 4 3 1 5 6 7 8 9 10 10 10
26 26 26 27 27 24 24 22 9 7 6 8 4 7 6 2 7 1 6 5 4 2 3 3 3 6 4 1 0 5 4 7 2 1 2 4 6 6 6 2 3 3 2 4 2 3 3 3 1 3 2 5 4 2 2 5 4 4 4 6 5 3 4 4 5 5 5 5 4 5 3 4 4 4 3 2 5 3 4 6 6 6 8 8 9 10 12
27 28 28 26 28 21 10 7 6 6 7 2 4 5 4 3 7 6 7 8 6 5 4 3 2 5 3 3 3 2 5 6 3 4 2 1 6 3 3 4 4 1 3 3 1 2 1 2 1 1 3 2 2 4 5 4 5 4 4 5 4 4 7 6 3 4 5 6 6 4 2 5 3 3 3 1 2 3 4 5 6 6 6 8 9 9 9
28 28 29 27 14 5 6 3 4 1 4 5 8 8 7 4 3 3 4 5 7 7 6 4 5 3 5 4 2 1 5 2 3 3 4 2 1 1 4 3 1 2 2 2 1 1 1 2 3 1 3 2 3 5 4 4 5 5 4 4 2 2 3 3 3 2 3 3 2 3 4 3 4 2 1 1 2 2 4 5 6 6 8 9 9 9 9
28 29 15 8 6 4 4 2 2 3 7 6 3 4 5 6 3 3 3 4 4 5 4 5 5 5 2 4 2 7 7 3 5 2 2 2 3 2 0 1 2 1 1 1 2 1 1 1 1 2 2 5 4 3 4 4 4 3 3 2 3 4 3 2 1 1 0 2 2 2 2 1 1 2 0 1 2 3 3 3 4 4 6 7 8 9 9
25 11 6 4 5 1 2 4 4 5 7 4 5 3 3 3 3 2 3 3 2 4 3 4 4 4 5 5 3 5 5 4 6 4 2 4 3 1 1 1 2 2 1 2 2 1 2 2 2 3 2 4 5 4 2 4 3 3 3 2 3 3 2 3 4 5 4 5 6 5 6 4 1 1 1 2 1 1 2 3 5 5 7 7 8 9 10
6 7 4 5 3 5 6 3 4 6 4 3 3 3 2 3 3 3 2 2 3 2 2 3 2 3 5 5 6 1 4 6 4 4 3 2 1 2 0 1 2 2 0 1 3 1 3 1 2 3 2 4 6 6 4 3 3 3 2 3 3 3 4 4 3 2 2 1 3 4 3 3 3 1 3 3 3 4 4 3 4 6 7 7 8 9 10
6 7 6 4 8 8 7 10 8 3 2 3 2 2 1 3 4 1 1 3 4 2 1 5 2 4 3 4 4 3 5 2 3 3 3 1 2 3 2 1 0 1 1 2 1 2 2 1 2 2 3 4 6 5 5 4 4 4 3 3 3 3 3 4 3 4 2 1 2 2 3 3 3 3 3 4 4 4 4 4 5 6 7 9 8 8 9
9 9 8 11 12 11 10 6 3 2 2 3 2 3 4 2 1 2 2 4 2 1 5 2 3 3 3 5 5 5 1 3 3 2 3 1 2 2 0 1 1 1 2 2 1 2 1 2 2 2 2 5 6 6 5 4 4 4 4 3 2 2 2 4 4 4 3 2 2 3 3 2 3 3 4 5 5 5 6 5 6 7 8 8 8 9 10
21 18 9 7 5 3 2 2 3 2 2 2 1 2 2 3 3 5 4 3 1 3 2 2 2 3 2 2 4 2 2 2 2 2 1 2 0 1 2 0 1 1 1 1 2 1 2 2 2 4 5 6 5 5 4 4 4 4 4 4 3 2 2 3 3 4 3 3 3 3 3 3 3 4 5 6 6 6 6 6 7 7 8 8 8 9 9
8 4 3 2 3 2 2 2 2 2 3 3 4 4 4 4 5 3 3 3 4 4 1 3 1 6 0 4 4 0 2 3 2 2 0 0 2 1 1 0 2 2 1 2 1 2 2 2 2 5 5 6 4 5 5 5 5 4 4 3 4 3 2 2 2 3 4 4 3 3 3 4 4 5 5 5 7 7 7 7 6 7 8 9 9 9 9
4 2 2 2 2 2 2 1 2 3 4 5 3 6 4 6 4 6 2 3 2 1 2 3 3 2 4 1 3 2 1 1 1 1 1 1 1 1 1 2 1 2 2 0 1 2 1 3 4 6 6 6 5 6 6 6 6 4 4 4 3 3 3 3 3 3 3 3 4 4 4 4 5 5 5 6 6 6 7 7 8 8 7 8 9 9 9
2 2 2 3 3 3 3 3 3 4 4 4 5 7 7 4 3 1 3 2 1 2 2 3 4 3 4 0 3 2 0 2 2 2 2 1 0 1 1 0 1 1 1 1 2 2 3 5 5 5 5 6 6 6 6 6 5 4 5 4 4 3 2 2 3 3 3 3 3 4 4 4 5 5 5 5 6 6 6 7 7 8 9 9 9 9 10
3 2 2 2 4 3 3 4 5 4 4 6 5 2 2 1 1 2 3 3 2 3 4 3 4 4 4 1 2 4 3 1 0 1 2 0 1 1 0 1 0 0 2 2 1 2 4 6 5 4 5 7 7 6 6 6 5 4 4 4 4 4 3 3 3 3 3 4 5 5 5 5 5 5 5 6 6 6 6 7 7 7 8 8 9 9 8
4 2 2 3 4 3 7 5 5 3 2 3 2 3 2 2 4 3 2 2 2 4 4 4 4 3 5 2 3 5 2 1 1 0 1 0 0 1 0 1 1 1 1 1 3 4 6 6 5 4 5 6 6 6 6 6 5 5 5 5 5 4 4 3 3 3 4 5 5 5 5 6 5 5 5 6 7 7 7 7 7 7 7 9 9 9 9
2 2 3 3 3 2 4 4 5 6 5 3 4 5 5 6 3 3 2 3 3 3 3 4 2 3 3 2 3 3 3 1 1 1 2 1 0 2 1 1 0 1 0 2 5 5 6 5 4 3 5 6 6 5 5 5 5 5 5 6 5 4 3 3 3 3 4 4 4 4 5 5 5 6 6 6 6 7 7 7 7 6 7 8 9 9 9
3 3 3 4 4 5 6 5 5 5 6 5 5 5 2 3 2 4 3 4 3 5 3 3 2 3 2 1 3 0 2 1 0 0 2 1 1 2 1 2 2 1 3 5 5 6 5 4 4 4 5 6 6 5 6 6 6 5 5 5 5 4 4 4 4 4 4 5 5 5 5 6 6 6 6 6 6 7 7 7 6 6 7 7 8 9 10
2 2 4 6 7 4 2 5 5 5 5 6 6 3 2 2 1 2 4 5 5 4 3 4 2 2 3 3 2 2 1 1 3 3 2 2 1 1 2 4 2 2 5 4 6 5 5 3 3 4 5 6 6 5 5 6 6 6 5 6 6 5 5 5 5 4 5 5 5 5 5 5 5 7 6 6 7 7 7 6 6 6 7 7 7 8 9
2 4 4 6 8 7 6 5 4 4 3 2 3 1 2 3 1 3 4 6 5 4 2 0 1 2 2 3 2 1 1 2 2 0 1 1 1 1 1 1 3 3 3 4 5 5 5 4 4 4 4 6 6 5 6 6 5 5 5 5 5 6 6 5 6 5 6 6 6 5 5 5 6 6 6 7 7 7 6 5 5 6 6 6 7 8 8
Wind_Direction
347 347 346 344 344 349 349 348 347 348 345 347 344 319 296 339 12 70 323 163 282 280 270 256 244 354 30 305 252 303 289 310 323 316 319 316 275 285 298 312 313 309 217 147 167 162 164 185 176 170 179 163 204 160 174 176 183 188 178 201 179 192 179 176 184 183 179 196 176 202 216 207 205 203 218 212 210 202 217 214 211 215 212 229 193 231 120
351 349 347 345 347 350 351 348 345 345 352 342 330 321 322 331 338 133 157 239 269 284 319 4 354 344 339 329 319 319 294 304 319 304 305 316 312 316 309 296 313 321 300 173 155 157 154 182 180 169 166 168 158 153 177 180 182 186 177 211 161 205 181 181 176 180 170 191 181 196 212 216 207 204 209 221 215 203 221 242 224 233 217 225 214 213 155
354 353 351 349 350 352 354 350 344 344 345 346 328 321 323 302 289 258 149 187 247 295 347 320 324 329 325 328 321 356 297 279 300 295 297 306 296 301 301 299 312 300 267 182 146 157 168 165 184 168 183 126 173 160 179 178 170 195 178 232 155 219 183 179 186 179 176 186 188 189 192 203 199 210 207 217 223 207 202 219 212 225 211 224 221 215 111
353 356 356 355 354 355 358 355 347 342 342 345 332 324 311 332 331 34 177 225 256 261 278 287 305 315 325 324 337 333 339 166 216 256 286 282 288 283 280 284 251 224 200 170 161 165 168 150 160 175 143 124 166 166 173 180 166 198 157 223 161 221 213 197 203 194 193 196 191 176 189 191 209 199 208 201 215 217 213 209 224 222 202 224 215 201 138
352 354 355 354 354 355 359 1 353 345 338 341 329 293 258 298 323 346 339 320 235 286 294 285 271 295 330 316 341 329 329 329 83 163 311 281 322 304 275 288 238 178 173 166 172 167 163 155 176 155 134 153 142 168 174 186 159 62 125 207 166 225 212 213 199 200 213 180 189 169 195 201 206 205 204 207 205 218 217 207 217 221 226 220 218 162 163
348 353 353 352 356 359 359 1 358 349 336 336 327 317 331 309 42 304 7 306 318 322 275 323 315 304 303 302 312 311 327 357 5 298 312 317 297 323 285 260 254 177 170 156 152 151 158 178 152 133 131 139 147 163 177 192 120 130 167 175 192 209 215 197 208 210 217 186 191 194 195 211 203 210 207 208 206 210 220 215 220 210 221 223 202 184 174
347 349 351 351 353 355 356 358 359 353 341 332 319 347 350 322 320 283 332 293 314 308 313 309 302 298 303 314 303 318 347 4 4 343 325 327 72 32 284 251 161 167 172 164 143 150 150 144 124 134 147 142 154 159 167 194 155 177 171 186 205 231 202 195 208 209 215 209 211 203 204 203 206 207 211 209 211 210 212 221 222 220 207 237 249 213 203
345 348 349 350 350 351 353 356 358 355 344 329 359 58 338 2 336 334 330 295 287 284 284 292 297 304 300 279 332 331 354 353 349 352 338 335 0 197 341 4 178 161 161 163 126 98 146 108 142 180 135 146 171 156 176 161 167 181 186 189 184 245 169 189 199 214 209 212 211 187 195 209 219 209 211 212 212 214 208 208 213 224 233 224 248 258 245
347 348 347 348 348 350 350 351 358 354 351 356 356 1 27 315 297 304 308 308 297 295 278 268 286 288 280 270 336 343 355 336 347 338 337 307 316 338 349 7 355 141 149 135 113 54 68 132 237 13 111 151 154 165 173 171 162 181 176 195 170 227 191 189 194 205 185 209 247 218 216 225 223 218 211 211 208 213 207 208 206 210 210 218 230 224 206
345 346 345 347 347 348 347 348 352 354 347 348 348 335 351 317 306 300 290 283 302 297 302 293 291 286 347 321 339 332 321 325 347 339 356 323 332 326 329 40 359 49 130 105 65 23 322 348 8 351 84 285 156 186 173 182 170 177 178 184 185 203 205 188 191 206 196 186 207 215 220 227 228 225 214 208 210 215 212 211 210 211 212 215 212 216 204
339 342 344 344 345 345 345 346 347 353 352 359 347 326 342 345 324 318 298 298 295 304 310 294 285 340 317 308 314 317 314 321 321 320 340 334 20 326 331 341 19 56 14 17 350 298 286 296 310 218 190 196 146 213 186 174 174 180 175 177 190 190 201 186 198 209 196 186 195 213 216 220 223 211 230 221 215 206 211 208 210 204 208 225 206 224 179
338 339 342 342 342 342 341 345 347 349 351 341 330 326 340 321 304 280 316 314 311 317 308 302 315 318 310 312 307 301 301 304 306 306 295 302 303 303 308 327 330 104 314 286 313 308 283 239 222 264 254 157 154 166 182 190 168 199 169 184 185 185 188 191 177 203 197 176 184 203 216 224 94 38 268 271 247 226 215 220 211 206 205 222 220 215 192
338 336 340 341 341 342 342 342 344 344 346 340 334 333 335 317 289 316 309 298 295 311 314 306 315 303 302 310 304 298 297 301 293 279 277 282 290 289 296 311 317 357 326 322 317 297 238 187 173 192 157 149 164 164 181 192 186 195 166 183 188 190 185 189 181 207 167 173 192 210 223 115 150 99 130 116 215 245 246 234 221 216 213 210 218 217 216
336 334 336 339 340 341 342 342 341 343 341 340 331 325 312 326 338 308 307 312 297 304 308 297 286 306 324 311 306 301 296 277 268 261 265 251 268 281 281 270 317 348 315 324 294 297 187 199 165 183 158 143 117 180 164 187 204 217 200 177 195 184 200 195 186 215 191 188 202 217 54 205 194 184 189 175 203 199 205 223 228 226 227 210 206 216 220
334 335 336 337 339 339 341 341 340 340 339 338 320 314 311 306 257 282 288 279 293 303 286 275 342 324 315 306 299 307 300 306 284 247 243 236 255 259 273 278 295 329 327 316 277 202 196 181 184 181 137 161 168 170 155 185 194 212 234 226 187 191 206 187 208 194 232 194 209 214 218 241 209 211 193 196 213 207 202 214 231 218 223 231 220 205 208
332 333 334 335 336 338 338 338 338 337 337 336 323 320 301 289 256 211 260 283 308 298 75 358 325 305 300 300 309 304 309 314 306 293 262 233 243 249 243 248 277 326 297 268 258 261 193 208 194 211 174 174 168 152 175 167 181 193 209 228 215 187 212 202 213 188 215 232 222 212 226 214 351 180 179 169 184 190 192 218 234 207 208 208 218 214 214
331 331 333 334 336 336 335 336 337 335 336 339 329 317 306 305 298 256 252 240 231 261 292 303 306 295 295 294 268 247 287 293 329 329 301 171 263 242 223 315 288 241 260 281 247 230 202 213 215 200 208 154 157 196 166 168 171 174 184 208 212 202 202 201 210 211 205 219 217 219 222 151 128 110 149 157 173 160 179 219 232 208 202 201 204 212 214
329 329 331 334 335 333 332 334 336 336 334 337 327 321 305 289 278 248 245 249 276 277 264 268 291 293 275 316 307 311 292 283 285 285 268 281 267 206 220 239 220 181 254 257 250 229 226 218 205 199 210 196 203 184 193 162 175 177 176 188 193 200 213 213 214 212 198 215 233 230 211 108 139 146 149 148 160 174 202 210 49 348 203 192 201 208 210
327 327 329 333 332 330 331 333 336 335 336 334 331 315 306 319 329 174 286 251 245 273 271 302 292 272 271 289 275 280 282 296 304 289 279 255 10 322 242 309 294 196 195 228 258 242 228 220 229 214 211 173 203 191 199 172 178 177 179 181 189 192 202 203 221 221 215 200 228 234 252 99 135 149 144 149 160 199 216 98 290 328 334 203 200 207 204
326 325 328 330 329 328 330 331 334 335 335 335 332 317 308 307 301 174 190 253 241 265 281 271 237 251 244 239 257 255 262 248 246 266 289 304 11 256 246 214 195 248 190 240 239 255 246 224 218 199 219 217 202 219 178 204 198 188 179 192 197 182 197 199 199 217 224 204 222 222 230 174 196 146 153 174 223 51 46 7 87 300 256 247 221 210 196
324 324 326 328 327 328 329 330 331 332 333 332 334 319 313 310 312 297 232 242 265 297 293 193 215 243 251 252 251 259 261 261 269 258 292 289 319 311 240 4 217 180 209 189 225 209 223 243 226 222 237 279 192 198 215 195 192 178 192 185 218 173 211 198 207 209 210 206 218 221 37 119 180 179 220 189 56 56 25 323 107 55 245 198 219 220 180
323 322 324 325 326 326 327 328 330 329 331 333 331 316 301 309 310 303 297 288 260 249 258 302 305 288 272 265 263 255 252 252 257 272 290 294 295 282 280 285 298 300 335 270 248 272 221 334 319 246 223 170 302 229 196 194 198 180 152 169 220 193 223 232 236 185 224 232 192 78 200 139 151 96 93 66 96 61 33 27 38 31 78 174 207 180 143
321 321 324 324 324 324 324 325 326 327 328 331 328 317 307 309 306 305 300 281 260 260 266 267 271 273 266 257 245 243 246 249 263 263 259 270 282 275 280 334 309 1 235 302 322 342 286 14 269 315 287 199 171 233 219 233 211 176 186 194 217 173 242 15 229 227 237 134 102 121 115 167 121 121 100 107 115 142 277 347 27 37 53 205 207 169 174
319 321 322 322 322 322 322 323 324 325 326 326 325 314 307 303 294 289 283 269 269 297 285 222 231 268 234 272 207 208 221 237 238 242 251 248 261 275 285 262 291 267 274 46 359 312 349 330 340 15 277 310 268 254 219 195 227 207 222 193 205 195 213 226 233 215 229 221 159 212 169 103 146 138 137 109 149 116 231 232 289 46 73 193 79 173 176
318 320 320 321 322 321 321 321 322 322 322 322 321 308 297 285 273 287 298 308 321 322 305 290 245 267 341 174 145 177 203 214 214 227 227 229 234 243 318 31 334 307 336 4 312 259 260 285 292 320 263 73 5 229 220 239 195 219 229 203 196 203 186 239 228 230 224 254 201 139 120 139 157 184 165 199 172 156 205 234 204 141 124 183 168 161 163
318 319 318 318 319 319 320 319 320 320 320 322 321 309 302 290 297 291 273 266 258 255 297 310 355 8 252 300 184 227 172 183 199 200 212 217 224 238 272 317 333 343 307 304 318 292 265 251 241 226 256 243 243 272 236 86 18 337 275 67 295 19 155 228 201 233 225 196 157 154 161 185 188 183 201 112 137 145 147 196 173 162 147 102 102 147 154
318 318 316 316 316 317 318 318 318 319 320 323 318 304 289 280 271 268 265 301 318 260 222 269 310 307 357 329 311 172 160 172 185 200 208 220 224 231 250 268 282 299 307 311 292 291 259 252 263 262 245 269 325 280 306 265 236 244 268 147 190 228 222 235 221 230 231 233 247 231 233 233 160 163 174 153 121 123 129 171 172 149 130 141 149 141 154
315 315 314 316 315 315 317 317 317 318 321 321 312 298 286 277 270 260 249 248 283 304 306 299 294 309 316 277 260 239 156 174 176 186 197 202 213 227 241 256 267 266 265 262 255 231 239 245 250 274 287 291 276 250 238 280 32 279 256 248 135 235 354 342 284 255 123 41 77 13 356 75 38 80 115 133 149 175 165 158 158 148 142 172 146 153 158
315 314 314 314 313 313 314 315 315 317 320 319 309 301 271 244 244 218 233 240 257 293 295 287 278 267 307 39 296 155 133 177 172 185 188 196 192 199 225 241 246 259 265 264 260 283 270 272 287 287 314 14 312 274 253 221 215 236 83 346 70 102 263 73 90 106 114 347 36 23 35 72 87 79 104 119 165 184 174 153 150 147 164 153 156 162 160
313 313 312 312 312 311 311 310 312 314 319 317 307 294 275 154 193 205 129 285 288 305 301 319 310 14 344 287 348 132 156 168 169 184 191 190 175 184 210 209 229 217 237 246 258 249 272 274 321 272 300 207 259 321 248 234 220 171 172 204 78 122 128 78 27 28 94 63 55 64 63 80 96 112 113 87 123 191 152 155 164 158 157 153 155 156 160
313 312 311 310 310 307 305 306 307 311 311 298 296 277 270 196 123 207 145 261 306 288 289 274 270 299 287 212 277 349 163 176 180 180 193 182 152 172 145 167 175 172 220 209 213 270 343 277 301 277 259 189 240 271 289 240 197 119 100 93 128 109 118 71 46 80 85 69 71 89 109 95 112 126 105 136 114 164 142 121 102 92 105 157 151 152 157
312 311 310 309 307 305 301 300 302 303 293 273 245 258 349 348 6 1 260 263 286 260 266 297 294 245 281 155 165 192 189 169 179 167 155 153 146 153 163 198 168 190 275 328 356 349 236 300 277 297 279 117 142 266 280 337 253 128 99 170 90 72 89 64 85 82 60 40 342 176 113 92 26 354 104 137 137 148 180 124 135 102 124 154 138 148 153
312 309 309 307 304 301 299 295 295 293 279 280 295 299 290 280 271 254 242 253 248 257 267 287 278 302 262 49 167 149 167 158 193 204 168 189 154 165 173 201 165 185 160 228 236 282 105 192 260 261 180 81 240 236 26 259 51 69 160 108 130 137 85 63 66 61 52 54 15 9 35 53 69 69 88 144 153 193 157 128 137 149 158 140 149 148 152
311 310 307 305 301 298 295 294 289 282 260 250 252 228 202 155 165 214 252 222 272 267 258 261 276 281 284 157 211 87 310 284 167 318 137 163 155 182 166 177 186 221 175 214 112 175 193 221 238 253 130 175 195 260 205 129 130 145 145 99 101 144 147 126 65 57 46 43 40 49 52 78 91 103 123 208 125 71 185 147 147 164 149 149 149 153 153
311 308 306 301 298 296 294 288 272 205 206 217 221 78 83 117 295 272 219 233 261 221 209 231 242 282 310 10 360 67 349 286 55 53 321 124 161 199 156 197 156 246 162 210 228 223 208 228 14 250 198 167 201 242 58 112 118 124 146 142 101 97 157 146 68 51 57 50 59 72 101 90 102 136 152 163 107 170 167 146 159 165 155 154 156 155 156
309 304 300 299 297 292 280 227 227 218 220 247 48 41 10 268 214 219 223 231 254 305 288 285 274 282 334 329 2 36 312 251 165 189 128 183 200 222 232 176 202 170 118 194 295 247 275 72 240 221 128 172 40 36 79 103 130 127 113 102 86 44 39 35 84 82 59 52 49 47 70 221 198 25 47 26 125 166 160 167 158 165 159 151 154 156 155
303 300 299 296 283 228 229 225 165 337 23 343 322 324 312 268 173 161 177 224 224 232 275 305 291 330 11 344 290 63 326 336 336 216 132 242 33 125 233 214 248 104 213 203 217 292 87 180 261 339 31 36 72 47 52 54 64 103 108 84 52 99 96 70 55 59 79 63 73 56 7 340 65 33 64 180 162 181 175 181 169 165 166 164 161 161 156
302 298 292 282 258 240 231 170 73 18 308 272 236 237 185 201 208 192 198 229 182 191 230 244 272 291 253 292 327 37 303 353 314 333 111 51 250 164 269 307 68 231 217 118 70 332 297 251 325 51 83 63 73 81 73 77 71 75 95 105 104 97 89 114 13 5 196 176 153 99 82 15 18 46 157 184 195 179 186 137 156 149 151 157 162 155 139
289 286 283 273 258 268 15 31 36 321 293 246 233 260 209 189 235 214 209 182 163 225 212 239 267 299 325 317 355 77 9 327 302 313 23 71 327 33 289 229 119 265 216 174 128 241 236 144 207 189 125 147 147 109 128 98 88 58 60 71 91 102 112 75 34 359 352 11 0 33 359 356 315 171 187 190 122 77 89 127 115 144 157 161 156 151 134
351 336 333 308 313 8 326 18 36 297 255 246 199 239 253 198 228 236 163 218 217 204 197 224 233 320 353 334 329 15 66 322 345 358 342 97 57 323 5 296 88 279 17 62 78 235 285 151 188 206 119 138 121 139 143 136 110 104 114 114 123 89 42 29 13 47 321 324 28 34 19 346 24 91 150 170 150 154 158 144 144 153 170 158 140 135 133
354 340 321 323 340 323 319 315 302 247 248 234 203 208 266 248 224 271 258 248 248 163 204 306 305 245 172 272 267 312 93 284 301 328 287 347 53 271 283 54 10 288 71 75 94 274 266 18 36 39 57 97 123 147 140 135 117 116 119 136 102 76 44 8 21 15 13 87 99 75 44 57 90 117 139 155 156 149 128 139 157 160 140 127 134 132 120
332 305 303 299 295 287 284 257 235 235 235 242 235 231 219 258 207 216 241 256 221 185 168 237 266 336 7 350 345 326 332 55 298 290 288 26 34 313 328 140 225 279 72 60 351 250 299 44 24 76 81 101 121 140 154 140 136 134 128 145 140 82 18 16 23 47 33 47 71 78 66 76 90 109 137 147 149 146 146 140 139 141 138 119 112 116 126
284 267 251 285 297 268 242 258 189 231 211 178 219 258 217 230 217 230 197 215 20 270 101 201 310 288 219 264 238 232 328 16 298 278 307 14 329 247 316 45 261 118 61 318 266 33 46 47 36 74 99 115 144 150 149 142 135 124 129 142 143 150 49 15 37 56 59 70 81 84 96 107 104 103 121 130 135 135 132 135 138 131 115 116 120 118 118
288 292 275 252 273 258 217 246 184 201 245 213 185 216 202 228 214 193 255 193 171 221 63 306 328 301 296 126 300 160 199 193 221 253 333 90 263 55 277 239 68 70 248 237 242 77 58 71 34 61 102 122 148 153 139 137 145 130 131 137 142 158 122 81 112 119 92 86 91 100 116 115 111 121 127 131 138 136 131 134 133 122 121 121 120 120 119
293 264 230 249 247 204 137 288 191 211 219 218 221 227 208 217 217 216 201 62 249 353 271 255 322 300 297 47 239 203 295 336 165 275 21 302 316 21 325 46 22 262 256 90 49 89 65 56 81 109 123 143 158 140 131 147 145 152 132 134 146 139 145 145 130 125 111 105 119 129 128 129 129 124 128 121 117 118 129 137 137 139 131 124 122 124 130
316 310 294 263 267 239 220 235 181 216 231 219 214 218 233 269 319 55 55 281 313 250 278 343 304 299 281 131 297 14 154 268 291 42 348 280 353 62 40 346 271 285 8 52 75 48 48 47 36 59 110 134 147 139 139 147 145 132 148 153 139 144 156 151 126 116 125 130 128 124 124 127 120 126 118 114 112 116 122 130 136 129 125 124 125 129 139
257 222 244 271 282 246 213 229 212 222 234 223 238 245 275 122 135 35 33 348 301 355 314 304 297 313 302 294 261 212 203 268 270 33 282 340 52 124 214 274 181 140 108 82 49 24 47 45 53 67 113 137 142 145 143 145 148 149 149 130 145 143 148 151 135 125 130 132 127 132 135 122 121 122 128 123 114 110 118 129 130 128 128 127 127 127 137
279 298 295 260 241 214 209 225 238 240 251 260 213 230 213 197 215 165 79 360 335 296 297 308 271 226 232 188 264 305 7 49 354 68 359 5 139 330 214 237 170 96 311 352 64 32 40 40 50 90 123 135 145 150 146 145 149 153 141 139 148 147 152 151 142 137 140 143 146 142 132 124 125 129 123 112 113 116 121 118 125 130 127 130 136 137 133
310 302 265 269 280 259 244 232 239 243 225 214 220 216 201 215 209 54 20 307 297 300 325 304 323 311 269 184 256 222 220 194 255 148 176 219 135 177 199 137 300 137 160 15 52 37 37 53 72 105 131 142 143 150 141 148 153 150 143 143 155 161 150 146 138 134 141 142 142 152 143 133 129 112 105 109 111 111 114 118 118 119 126 132 135 136 137
239 223 226 248 261 249 249 273 268 246 221 224 224 211 219 237 132 83 357 309 322 296 261 230 266 270 288 281 239 207 263 161 328 274 253 153 170 207 242 130 228 186 95 49 44 44 46 65 103 120 139 139 144 153 145 138 140 144 143 144 146 160 150 137 135 138 143 144 154 156 147 151 138 120 124 118 113 113 119 121 123 131 136 139 140 140 138
221 268 263 269 274 288 306 246 238 238 220 218 224 214 261 253 307 17 16 310 300 290 261 238 196 237 245 219 265 239 187 48 253 235 242 151 204 200 179 192 205 76 89 78 57 44 52 62 99 119 134 146 147 148 140 139 154 150 152 149 151 152 142 143 134 131 136 138 136 138 157 162 140 132 127 123 125 125 113 113 125 128 125 131 142 146 146
237 231 245 223 226 246 247 261 275 277 288 282 250 192 270 251 324 332 326 293 288 271 264 26 271 241 234 238 229 287 3 238 261 287 250 138 234 211 228 312 76 95 85 87 80 74 69 67 74 114 139 137 148 152 143 152 158 148 152 149 146 139 141 150 150 142 136 137 143 147 144 143 150 146 146 146 141 138 134 131 132 133 138 142 143 148 150